Previsão horária em Aberkenfig

Hoje, 21 Janeiro, Quinta-feira

Tempo Temperatura Precipitação Vento Pressão Humidade
00:00 +1°C° 0.6 mm 10 m/s 724 mmHg 86%
01:00 +1°C° 0.1 mm 10 m/s 725 mmHg 86%
02:00 +1°C° 0.1 mm 9 m/s 726 mmHg 86%
03:00 0°C° 0.1 mm 9 m/s 727 mmHg 85%
04:00 +1°C° 0.2 mm 9 m/s 727 mmHg 83%
05:00 +1°C° 0.2 mm 10 m/s 727 mmHg 82%
06:00 +1°C° 0.2 mm 10 m/s 727 mmHg 80%
07:00 +1°C° 0.2 mm 10 m/s 727 mmHg 80%
08:00 +1°C° 0.2 mm 10 m/s 727 mmHg 79%
09:00 +1°C° 0.2 mm 10 m/s 727 mmHg 79%
10:00 +2°C° 0 mm 9 m/s 728 mmHg 78%
11:00 +2°C° 0 mm 9 m/s 728 mmHg 77%
12:00 +4°C° 0 mm 8 m/s 728 mmHg 76%
13:00 +4°C° 0 mm 7 m/s 728 mmHg 76%
14:00 +4°C° 0 mm 7 m/s 728 mmHg 77%
15:00 +4°C° 0 mm 6 m/s 728 mmHg 78%
16:00 +3°C° 0 mm 6 m/s 728 mmHg 83%
17:00 +1°C° 0 mm 5 m/s 728 mmHg 87%
18:00 0°C° 0 mm 5 m/s 728 mmHg 92%
19:00 0°C° 0 mm 4 m/s 729 mmHg 92%
20:00 -1°C° 0 mm 4 m/s 729 mmHg 91%
21:00 0°C° 0 mm 3 m/s 730 mmHg 91%
22:00 0°C° 0 mm 3 m/s 730 mmHg 90%
23:00 0°C° 0 mm 3 m/s 730 mmHg 90%

Amanhã, 22 Janeiro, Sexta-feira

Tempo Temperatura Precipitação Vento Pressão Humidade
00:00 -1°C° 0 mm 4 m/s 731 mmHg 90%
01:00 0°C° 0 mm 3 m/s 731 mmHg 90%
02:00 0°C° 0 mm 3 m/s 731 mmHg 90%
03:00 0°C° 0 mm 3 m/s 731 mmHg 90%
04:00 0°C° 0 mm 3 m/s 731 mmHg 90%
05:00 0°C° 0 mm 3 m/s 732 mmHg 90%
06:00 0°C° 0 mm 3 m/s 732 mmHg 90%
07:00 +1°C° 0 mm 2 m/s 732 mmHg 89%
08:00 +1°C° 0 mm 2 m/s 733 mmHg 89%
09:00 +1°C° 0 mm 2 m/s 733 mmHg 88%
10:00 +2°C° 0 mm 2 m/s 733 mmHg 83%
11:00 +4°C° 0 mm 2 m/s 734 mmHg 78%
12:00 +5°C° 0 mm 2 m/s 734 mmHg 73%
13:00 +5°C° 0 mm 2 m/s 734 mmHg 74%
14:00 +5°C° 0 mm 2 m/s 734 mmHg 75%
15:00 +5°C° 0 mm 2 m/s 733 mmHg 76%
16:00 +3°C° 0 mm 2 m/s 733 mmHg 79%
17:00 +2°C° 0 mm 2 m/s 734 mmHg 83%
18:00 +1°C° 0 mm 2 m/s 734 mmHg 86%
19:00 +1°C° 0 mm 2 m/s 734 mmHg 86%
20:00 +1°C° 0 mm 2 m/s 734 mmHg 85%
21:00 -1°C° 0 mm 2 m/s 734 mmHg 85%
22:00 -1°C° 0 mm 2 m/s 734 mmHg 84%
23:00 -1°C° 0 mm 2 m/s 734 mmHg 84%

Depois de amanhã, 23 Janeiro, Sábado

Tempo Temperatura Precipitação Vento Pressão Humidade
00:00 -1°C° 0 mm 2 m/s 734 mmHg 83%
01:00 -1°C° 0 mm 2 m/s 735 mmHg 84%
02:00 -1°C° 0 mm 3 m/s 735 mmHg 84%
03:00 -1°C° 0 mm 3 m/s 735 mmHg 84%
04:00 -1°C° 0 mm 3 m/s 735 mmHg 84%
05:00 -1°C° 0 mm 3 m/s 735 mmHg 84%
06:00 -2°C° 0 mm 4 m/s 736 mmHg 84%
07:00 -1°C° 0 mm 3 m/s 736 mmHg 83%
08:00 -1°C° 0 mm 3 m/s 736 mmHg 82%
09:00 -1°C° 0 mm 3 m/s 737 mmHg 81%
10:00 0°C° 0 mm 3 m/s 737 mmHg 75%
11:00 +1°C° 0 mm 3 m/s 738 mmHg 70%
12:00 +2°C° 0 mm 3 m/s 738 mmHg 64%
13:00 +1°C° 0 mm 4 m/s 738 mmHg 65%
14:00 +1°C° 0 mm 4 m/s 738 mmHg 66%
15:00 +1°C° 0 mm 4 m/s 737 mmHg 67%
16:00 0°C° 0 mm 4 m/s 737 mmHg 70%
17:00 0°C° 0 mm 3 m/s 738 mmHg 74%
18:00 -1°C° 0 mm 3 m/s 738 mmHg 78%
19:00 -1°C° 0 mm 3 m/s 738 mmHg 78%
20:00 -1°C° 0 mm 3 m/s 737 mmHg 78%
21:00 -1°C° 0 mm 2 m/s 737 mmHg 78%
22:00 -1°C° 0.1 mm 3 m/s 737 mmHg 80%
23:00 -1°C° 0.1 mm 3 m/s 737 mmHg 81%

24 Janeiro, Domingo

Tempo Temperatura Precipitação Vento Pressão Humidade
00:00 -1°C° 0.1 mm 3 m/s 737 mmHg 83%
01:00 -1°C° 1 mm 3 m/s 736 mmHg 88%
02:00 -1°C° 1 mm 3 m/s 736 mmHg 92%
03:00 -1°C° 1 mm 3 m/s 736 mmHg 97%
04:00 -1°C° 0.7 mm 3 m/s 736 mmHg 97%
05:00 -1°C° 0.7 mm 3 m/s 736 mmHg 97%
06:00 -2°C° 0.7 mm 4 m/s 735 mmHg 98%
07:00 -2°C° 0.2 mm 4 m/s 736 mmHg 96%
08:00 -2°C° 0.2 mm 5 m/s 736 mmHg 95%
09:00 -4°C° 0.2 mm 5 m/s 736 mmHg 93%
10:00 -2°C° 0.1 mm 5 m/s 737 mmHg 90%
11:00 -1°C° 0.1 mm 4 m/s 737 mmHg 87%
12:00 0°C° 0.1 mm 4 m/s 737 mmHg 83%
13:00 0°C° 0 mm 4 m/s 737 mmHg 84%
14:00 0°C° 0 mm 4 m/s 737 mmHg 85%
15:00 0°C° 0 mm 5 m/s 738 mmHg 86%
16:00 0°C° 0.1 mm 5 m/s 738 mmHg 88%
17:00 -1°C° 0.1 mm 5 m/s 738 mmHg 90%
18:00 -2°C° 0.1 mm 5 m/s 738 mmHg 92%
19:00 -1°C° 0.3 mm 5 m/s 739 mmHg 94%
20:00 -1°C° 0.3 mm 5 m/s 739 mmHg 96%
21:00 -1°C° 0.3 mm 5 m/s 740 mmHg 97%
22:00 0°C° 0.1 mm 5 m/s 740 mmHg 96%
23:00 -1°C° 0.1 mm 6 m/s 741 mmHg 94%

25 Janeiro, Segunda-feira

Tempo Temperatura Precipitação Vento Pressão Humidade
00:00 -1°C° 0.1 mm 7 m/s 741 mmHg 93%
01:00 -1°C° 0 mm 7 m/s 742 mmHg 92%
02:00 -1°C° 0 mm 7 m/s 742 mmHg 91%
03:00 -1°C° 0 mm 7 m/s 743 mmHg 90%
04:00 -1°C° 0 mm 7 m/s 743 mmHg 90%
05:00 -2°C° 0 mm 7 m/s 744 mmHg 90%
06:00 -2°C° 0 mm 6 m/s 744 mmHg 90%
07:00 -2°C° 0 mm 6 m/s 745 mmHg 91%
08:00 -2°C° 0 mm 6 m/s 745 mmHg 91%
09:00 -1°C° 0 mm 6 m/s 746 mmHg 92%
10:00 -1°C° 0 mm 6 m/s 746 mmHg 92%
11:00 +1°C° 0 mm 6 m/s 746 mmHg 91%
12:00 +1°C° 0 mm 6 m/s 747 mmHg 91%
13:00 +1°C° 0 mm 5 m/s 747 mmHg 90%
14:00 +1°C° 0 mm 5 m/s 747 mmHg 90%
15:00 +1°C° 0 mm 5 m/s 747 mmHg 89%
16:00 0°C° 0 mm 4 m/s 747 mmHg 89%
17:00 -1°C° 0 mm 4 m/s 747 mmHg 88%
18:00 -1°C° 0 mm 3 m/s 747 mmHg 88%
19:00 -1°C° 0 mm 2 m/s 747 mmHg 86%
20:00 -1°C° 0 mm 2 m/s 747 mmHg 84%
21:00 +1°C° 0 mm 1 m/s 747 mmHg 82%
22:00 +1°C° 0 mm 2 m/s 747 mmHg 84%
23:00 +1°C° 0 mm 2 m/s 747 mmHg 86%

26 Janeiro, Terça-feira

Tempo Temperatura Precipitação Vento Pressão Humidade
00:00 0°C° 0 mm 3 m/s 746 mmHg 87%
01:00 0°C° 0.1 mm 4 m/s 745 mmHg 90%
02:00 0°C° 0.1 mm 4 m/s 744 mmHg 93%
03:00 0°C° 0.1 mm 5 m/s 743 mmHg 96%
04:00 +1°C° 1.9 mm 6 m/s 742 mmHg 97%
05:00 0°C° 1.9 mm 7 m/s 740 mmHg 97%
06:00 0°C° 1.9 mm 8 m/s 738 mmHg 98%
07:00 +1°C° 2.1 mm 8 m/s 737 mmHg 98%
08:00 +1°C° 2.1 mm 8 m/s 737 mmHg 98%
09:00 +3°C° 2.1 mm 7 m/s 736 mmHg 97%
10:00 +4°C° 0.7 mm 8 m/s 735 mmHg 97%
11:00 +5°C° 0.7 mm 8 m/s 735 mmHg 97%
12:00 +6°C° 0.7 mm 9 m/s 735 mmHg 97%
13:00 +6°C° 0.1 mm 10 m/s 735 mmHg 93%
14:00 +6°C° 0.1 mm 10 m/s 735 mmHg 89%
15:00 +6°C° 0.1 mm 11 m/s 735 mmHg 85%
16:00 +5°C° 0 mm 13 m/s 735 mmHg 85%
17:00 +5°C° 0 mm 14 m/s 736 mmHg 84%
18:00 +5°C° 0 mm 15 m/s 737 mmHg 84%
19:00 +4°C° 0 mm 13 m/s 739 mmHg 85%
20:00 +3°C° 0 mm 11 m/s 740 mmHg 87%
21:00 +2°C° 0 mm 8 m/s 742 mmHg 88%
22:00 +2°C° 0 mm 7 m/s 743 mmHg 89%
23:00 +1°C° 0 mm 6 m/s 744 mmHg 90%
Mostrar mais